Frederick, MD

4:18 AM EDT on July 25, 2017 (GMT -0400)
Frederick Municipal

Weather History for KFDK - October, 2012

Change the Weather History Date:

Wednesday, October 17, 2012

  Actual Average (KHGR) Record (KHGR)
Temperature  
Mean Temperature 52 °F -  
Max Temperature 69 °F 60 °F 83 °F (2016)
Min Temperature 35 °F 42 °F 37 °F (2002)
Degree Days  
Heating Degree Days 13    
Growing Degree Days 2 (Base 50)    
Moisture  
Dew Point 41 °F    
Average Humidity 89    
Maximum Humidity 100    
Minimum Humidity 46    
Precipitation  
Precipitation 0.00 in - - ()
Sea Level Pressure  
Sea Level Pressure 29.98 in    
Wind  
Wind Speed 1 mph (SSW)    
Max Wind Speed 10 mph    
Max Gust Speed -    
Visibility 7 miles    
Events Fog , Snow    
Averages and records for this station are not official NWS values.
T = Trace of Precipitation, MM = Missing Value Source: NWS Daily Summary

Daily Weather History Graph

Daily Weather History Graph

Search for Another Location

Airport or City:

Trip Planner

Search our weather history database for the weather conditions in past years. The results will help you decide how hot, cold, wet, or windy it might be!

Date:

Astronomy

Oct. 17, 2012 Rise Set
Actual Time 7:21 AM EDT 6:26 PM EDT
Civil Twilight 6:54 AM EDT 6:54 PM EDT
Nautical Twilight 6:23 AM EDT 7:25 PM EDT
Astronomical Twilight 5:52 AM EDT 7:56 PM EDT
Moon 9:52 AM EDT (10/17) 8:01 PM EDT (10/17)
Length of Visible Light 11h 59m
Length of Day
11h 04m
Waxing Crescent, 7% of the Moon is Illuminated
Oct 17
Waxing Crescent
Oct 21
First Quarter
Oct 29
Full
Nov 6
Last Quarter
Nov 13
New

Hourly Weather History & Observations

Time (EDT) Temp. Windchill Dew Point Humidity Pressure Visibility Wind Dir Wind Speed Gust Speed Precip Events Conditions
12:10 AM 37.4 °F - 37.4 °F 100% 29.96 in 5.0 mi Calm Calm - N/A Snow Light Snow
12:35 AM 37.4 °F - 37.4 °F 100% 29.97 in 5.0 mi Calm Calm - N/A Snow Light Snow
12:55 AM 37.4 °F - 37.4 °F 100% 29.97 in 3.0 mi Calm Calm - N/A Snow Light Snow
1:15 AM 37.4 °F - 37.4 °F 100% 29.98 in 5.0 mi Calm Calm - N/A Snow Light Snow
1:35 AM 37.4 °F 34.9 °F 37.4 °F 100% 29.98 in 7.0 mi South 3.5 mph - N/A Snow Light Snow
2:00 AM 39.2 °F 37.0 °F 39.2 °F 100% 29.99 in 7.0 mi ESE 3.5 mph - N/A   Unknown
2:20 AM 37.4 °F - 37.4 °F 100% 29.99 in 7.0 mi Calm Calm - N/A Snow Light Snow
2:40 AM 37.4 °F - 37.4 °F 100% 29.99 in 5.0 mi Calm Calm - N/A Snow Light Snow
3:00 AM 37.4 °F - 37.4 °F 100% 29.98 in 3.0 mi Calm Calm - N/A Snow Light Snow
3:25 AM 37.4 °F - 37.4 °F 100% 29.98 in 5.0 mi Calm Calm - N/A Snow Light Snow
3:45 AM 37.4 °F - 37.4 °F 100% 29.99 in 2.0 mi Calm Calm - N/A Snow Light Snow
4:05 AM 35.6 °F - 35.6 °F 100% 29.99 in 4.0 mi Calm Calm - N/A Snow Light Snow
4:25 AM 35.6 °F - 35.6 °F 100% 29.99 in 0.8 mi Calm Calm - N/A Snow Light Snow
4:50 AM 35.6 °F - 35.6 °F 100% 29.99 in 3.0 mi Calm Calm - N/A   Clear
5:10 AM 35.6 °F - 35.6 °F 100% 30.00 in 3.0 mi Calm Calm - N/A   Clear
5:30 AM 35.6 °F - 35.6 °F 100% 30.00 in 3.0 mi Calm Calm - N/A   Clear
5:50 AM 35.6 °F - 35.6 °F 100% 30.00 in 1.0 mi Calm Calm - N/A   Mostly Cloudy
6:15 AM 35.6 °F - 35.6 °F 100% 30.00 in 1.2 mi Calm Calm - N/A   Mist
6:35 AM 35.6 °F - 35.6 °F 100% 30.01 in 0.5 mi Calm Calm - N/A Fog Fog
6:48 AM 35.6 °F - 35.6 °F 100% 30.02 in 10.0 mi Calm Calm - N/A   Clear
6:50 AM 35.6 °F - 35.6 °F 100% 30.02 in 3.0 mi Calm Calm - N/A   Scattered Clouds
7:50 AM 35.6 °F - 35.6 °F 100% 30.03 in 10.0 mi Calm Calm - N/A   Clear
8:50 AM 39.2 °F - 39.2 °F 100% 30.04 in 10.0 mi Calm Calm - N/A   Clear
9:50 AM 50.0 °F - 48.2 °F 94% 30.05 in 10.0 mi Calm Calm - N/A   Clear
10:45 AM 57.2 °F - 48.2 °F 72% 30.05 in 10.0 mi Calm Calm - N/A   Clear
11:47 AM 66.2 °F - 48.2 °F 52% 30.03 in 10.0 mi West 3.5 mph - N/A   Clear
12:50 PM 64.4 °F - 46.4 °F 52% 30.00 in 10.0 mi Calm Calm - N/A   Clear
1:53 PM 68.0 °F - 46.4 °F 46% 29.97 in 10.0 mi SSW 10.4 mph - N/A   Clear
2:53 PM 66.2 °F - 46.4 °F 49% 29.96 in 10.0 mi SW 6.9 mph - N/A   Clear
3:52 PM 69.8 °F - 48.2 °F 46% 29.94 in 10.0 mi SSE 6.9 mph - N/A   Clear
4:55 PM 68.0 °F - 48.2 °F 49% 29.94 in 10.0 mi Variable 3.5 mph - N/A   Clear
5:50 PM 66.2 °F - 48.2 °F 52% 29.94 in 10.0 mi Variable 3.5 mph - N/A   Clear
6:55 PM 57.2 °F - 46.4 °F 67% 29.95 in 10.0 mi Calm Calm - N/A   Clear
7:50 PM 50.0 °F - 46.4 °F 87% 29.96 in 10.0 mi Calm Calm - N/A   Clear
9:05 PM 50.0 °F - 46.4 °F 87% 29.97 in 10.0 mi Calm Calm - N/A   Clear
9:30 PM 48.2 °F - 46.4 °F 93% 29.97 in 10.0 mi Calm Calm - N/A   Clear
9:50 PM 46.4 °F - 44.6 °F 93% 29.97 in 10.0 mi Calm Calm - N/A   Clear
10:10 PM 46.4 °F - 44.6 °F 93% 29.96 in 10.0 mi Calm Calm - N/A   Clear
10:30 PM 46.4 °F 45.2 °F 46.4 °F 100% 29.97 in 10.0 mi NNW 3.5 mph - N/A   Clear
10:55 PM 46.4 °F - 46.4 °F 100% 29.96 in 10.0 mi Calm Calm - N/A   Clear
11:15 PM 46.4 °F - 46.4 °F 100% 29.96 in 7.0 mi Calm Calm - N/A   Clear
11:35 PM 44.6 °F - 44.6 °F 100% 29.96 in 7.0 mi Calm Calm - N/A   Clear
11:55 PM 44.6 °F - 44.6 °F 100% 29.96 in 2.5 mi Calm Calm - N/A   Clear